Flag for Finland Weather past 2 weeks in Lappeenranta, Finland

Now
52 °F

Passing clouds.


Feels Like: 51 °F
Forecast: 51 / 58 °F
Wind: 5 mph from South

Location: Lappeenranta

Current Time: Jun 3, 2015 at 2:44:22 AM

Latest Report: Jun 3, 2015 at 1:50 AM


Visibility: N/A

Pressure: 29.71 "Hg

Humidity: 94%

Dew point: 50 °F

Location of LappeenrantaLocation

Historic Weather in Lappeenranta — Graph

°F

Lappeenranta temperature yesterday

Maximum temperature yesterday: 64 °F (at 2:20 PM)
Minimum temperature yesterday: 50 °F (at 5:20 AM)
Average temperature yesterday: 58 °F

Past Weeks' High & Low Weather Summary

 TemperatureHumidityPressure
High68 °F (May 26, 11:50 AM)100% (May 19, 6:20 AM)30.09 "Hg (May 19, 6:20 AM)
Low36 °F (May 25, 3:20 AM)21% (May 30, 5:50 PM)29.53 "Hg (May 19, 12:20 AM)
Average53 °F66%29.85 "Hg
* Reported May 19 12:20 AM — Jun 3 12:50 AM, Lappeenranta, Weather by CustomWeather, © 2015

Note: Actual official high and low records may vary slightly from our data, if they occured in-between our weather recording intervals... More about our weather records

Advertising

Lappeenranta weather history for previous 24 hours

 ConditionsComfort  
Time TempWeatherWind HumidityBarometerVisibility
12:50 AM
Wed, Jun 3
52 °FPartly cloudy.3 mph88%29.71 "HgN/A
12:20 AM52 °FPartly cloudy.3 mph88%29.74 "HgN/A
11:50 PM
Tue, Jun 2
52 °FSprinkles. Partly cloudy.3 mph88%29.74 "HgN/A
11:20 PM55 °FRain. Broken clouds.3 mph67%29.74 "Hg4 mi
10:50 PM57 °FPartly sunny.5 mph48%29.74 "HgN/A
10:20 PM57 °FMostly cloudy.5 mph44%29.77 "HgN/A
9:50 PM57 °FPassing clouds.6 mph44%29.77 "HgN/A
9:20 PM57 °FPassing clouds.5 mph44%29.80 "HgN/A
8:50 PM57 °FSunny.3 mph41%29.80 "Hg10 mi
8:20 PM59 °FSunny.2 mph39%29.83 "Hg10 mi
7:50 PM59 °FSunny.3 mph39%29.83 "Hg10 mi
7:20 PM61 °FPassing clouds.5 mph39%29.86 "HgN/A
6:50 PM61 °FPassing clouds.8 mph34%29.86 "HgN/A
6:20 PM63 °FPassing clouds.9 mph32%29.86 "HgN/A
5:50 PM63 °FPassing clouds.9 mph37%29.86 "HgN/A
5:20 PM63 °FPassing clouds.10 mph39%29.89 "HgN/A
4:50 PM63 °FPassing clouds.10 mph42%29.89 "HgN/A
4:20 PM64 °FPassing clouds.8 mph43%29.92 "HgN/A
3:50 PM64 °FPassing clouds.9 mph43%29.92 "HgN/A
3:20 PM63 °FPassing clouds.9 mph45%29.92 "HgN/A
2:50 PM64 °FPassing clouds.8 mph37%29.92 "HgN/A
2:20 PM64 °FSunny.3 mph43%29.92 "Hg10 mi
1:50 PM63 °FSunny.6 mph45%29.95 "Hg10 mi
1:20 PM63 °FSunny.6 mph42%29.95 "Hg10 mi
12:50 PM61 °FPassing clouds.9 mph45%29.95 "HgN/A
12:20 PM61 °FPassing clouds.10 mph42%29.95 "HgN/A
11:50 AM63 °FPassing clouds.10 mph42%29.95 "HgN/A
10:50 AM61 °FPartly sunny.9 mph45%29.95 "HgN/A
10:20 AM59 °FScattered clouds.10 mph51%29.95 "HgN/A
9:50 AM59 °FPassing clouds.8 mph55%29.95 "HgN/A
9:20 AM57 °FPassing clouds.7 mph59%29.95 "HgN/A
8:50 AM55 °FPassing clouds.6 mph67%29.95 "HgN/A
8:20 AM54 °FPassing clouds.6 mph77%29.95 "HgN/A
7:50 AM52 °FSunny.3 mph82%29.98 "Hg10 mi
6:20 AM50 °FSunny.7 mph88%29.98 "Hg10 mi
5:50 AM50 °FPassing clouds.5 mph88%29.95 "HgN/A
5:20 AM50 °FSprinkles. Passing clouds.6 mph82%29.95 "HgN/A
4:50 AM52 °FSprinkles. Broken clouds.5 mph77%29.95 "HgN/A
3:50 AM52 °FClear.3 mph72%29.95 "Hg10 mi
3:20 AM54 °FClear.3 mph63%29.95 "Hg10 mi
2:50 AM54 °FClear.3 mph67%29.95 "Hg10 mi
2:20 AM54 °FClear.8 mph63%29.95 "Hg10 mi
Weather by CustomWeather, © 2015

See weather overviewHow to use our weather pages